Flag for Sweden Weather past 2 weeks in Örebro, Sweden

Now
68 °F

Passing clouds.


Feels Like: 68 °F
Forecast: 58 / 65 °F
Wind: 17 mph from Southwest

Location: Orebro Private

Current Time: Jul 7, 2015 at 6:00:24 PM

Latest Report: Jul 7, 2015 at 5:20 PM


Visibility: N/A

Pressure: 29.59 "Hg

Humidity: 60%

Dew point: 54 °F

Location of ÖrebroLocation

Historic Weather in Örebro — Graph

°F

Örebro temperature yesterday

Maximum temperature yesterday: 70 °F (at 4:20 PM)
Minimum temperature yesterday: 61 °F (at 4:20 AM)
Average temperature yesterday: 64 °F

Past Weeks' High & Low Weather Summary

 TemperatureHumidityPressure
High84 °F (Jul 2, 6:50 PM)100% (Jun 22, 10:50 PM)30.39 "Hg (Jun 22, 10:50 PM)
Low46 °F (Jun 23, 2:20 AM)37% (Jul 3, 3:50 PM)29.56 "Hg (Jul 7, 3:50 AM)
Average65 °F74%29.95 "Hg
* Reported Jun 22 4:20 PM — Jul 7 4:50 PM, Örebro, Weather by CustomWeather, © 2015

Note: Actual official high and low records may vary slightly from our data, if they occured in-between our weather recording intervals... More about our weather records

Advertising

Örebro weather history for previous 24 hours

 ConditionsComfort  
Time TempWeatherWind HumidityBarometerVisibility
4:50 PM
Tue, Jul 7
68 °FPassing clouds.18 mph60%29.59 "HgN/A
4:20 PM68 °FPassing clouds.16 mph60%29.59 "HgN/A
3:50 PM68 °FPassing clouds.20 mph60%29.59 "HgN/A
3:20 PM68 °FPassing clouds.21 mph60%29.59 "HgN/A
2:50 PM68 °FPartly sunny.20 mph60%29.59 "HgN/A
2:20 PM68 °FPartly sunny.18 mph60%29.59 "HgN/A
1:50 PM66 °FPartly sunny.17 mph64%29.59 "HgN/A
1:20 PM66 °FPartly sunny.18 mph64%29.59 "HgN/A
12:50 PM66 °FScattered clouds.20 mph64%29.59 "HgN/A
12:20 PM64 °FBroken clouds.20 mph68%29.59 "HgN/A
11:50 AM64 °FBroken clouds.18 mph68%29.56 "HgN/A
11:20 AM64 °FPartly sunny.21 mph68%29.56 "HgN/A
10:50 AM64 °FBroken clouds.20 mph68%29.56 "HgN/A
10:20 AM63 °FPartly sunny.18 mph73%29.56 "HgN/A
9:50 AM63 °FPartly sunny.21 mph68%29.56 "HgN/A
9:20 AM61 °FBroken clouds.18 mph72%29.56 "HgN/A
8:50 AM61 °FScattered clouds.18 mph72%29.56 "HgN/A
8:20 AM59 °FScattered clouds.18 mph77%29.56 "HgN/A
7:50 AM59 °FPartly sunny.20 mph77%29.56 "HgN/A
7:20 AM57 °FScattered clouds.20 mph82%29.56 "HgN/A
6:50 AM57 °FScattered clouds.20 mph82%29.56 "HgN/A
6:20 AM57 °FScattered clouds.16 mph82%29.56 "HgN/A
5:50 AM57 °FBroken clouds.17 mph82%29.56 "HgN/A
5:20 AM57 °FBroken clouds.18 mph82%29.56 "HgN/A
4:50 AM57 °FPartly cloudy.20 mph82%29.56 "HgN/A
4:20 AM55 °FPartly cloudy.20 mph88%29.56 "HgN/A
3:50 AM55 °FPassing clouds.17 mph88%29.56 "HgN/A
3:20 AM55 °FLight rain. Passing clouds.18 mph88%29.59 "HgN/A
2:50 AM57 °FPassing clouds.17 mph82%29.59 "HgN/A
1:50 AM59 °FPartly cloudy.21 mph77%29.59 "HgN/A
1:20 AM59 °FPassing clouds.18 mph77%29.59 "HgN/A
12:50 AM59 °FPassing clouds.18 mph77%29.59 "HgN/A
12:20 AM59 °FPassing clouds.21 mph77%29.62 "HgN/A
10:50 PM
Mon, Jul 6
61 °FPartly sunny.20 mph77%29.62 "HgN/A
10:20 PM61 °FPartly sunny.20 mph77%29.65 "HgN/A
9:50 PM61 °FPartly sunny.18 mph77%29.65 "HgN/A
9:20 PM61 °FPartly sunny.21 mph77%29.65 "HgN/A
8:50 PM61 °FBroken clouds.20 mph77%29.65 "HgN/A
8:20 PM63 °FPartly sunny.22 mph73%29.65 "HgN/A
7:50 PM63 °FPartly sunny.23 mph68%29.65 "HgN/A
7:20 PM63 °FBroken clouds.21 mph73%29.65 "HgN/A
6:50 PM63 °FPartly sunny.22 mph73%29.68 "HgN/A
6:20 PM64 °FPartly sunny.21 mph68%29.68 "HgN/A
Weather by CustomWeather, © 2015

See weather overviewHow to use our weather pages